Regional Weather Roundup
Issued by NWS

Home | Current Version | Previous Version | Graphics & Text | Print | Product List | Glossary On
Versions: 1 2 3 4 5 6 7 8 9 10 11 12 13 14 15 16 17 18 19 20 21 22 23 24 25 26 27 28 29 30 31 32 33 34 35 36 37 38 39 40 41 42 43 44 45 46 47 48 49 50
000
ASUS43 KLOT 270206
RWRIL

ILLINOIS REGIONAL WEATHER ROUNDUP
NATIONAL WEATHER SERVICE CHICAGO/ROMEOVILLE IL
800 PM CST FRI DEC 26 2014

NOTE: "FAIR" INDICATES FEW OR NO CLOUDS BELOW 12,000 FEET WITH NO
SIGNIFICANT WEATHER AND/OR OBSTRUCTIONS TO VISIBILITY.

* THESE STATIONS ARE NOT UNDER NWS QUALITY CONTROL. THEY ALSO MAY NOT
  REPORT WEATHER SUCH AS PRECIPITATION OR FOG.

ILZ001-002-007-009-015-016-024-270300-
NORTHWEST ILLINOIS

CITY           SKY/WX    TMP DP  RH WIND       PRES   REMARKS
MOLINE         CLOUDY    45  38  76 CALM      29.97S
STERLING*      CLOUDY    45  37  76 W3        30.00S
SAVANNA*       MOCLDY    38  36  90 NE5       29.99F WCI  35
$$

ILZ003-004-008-010-011-017-018-270300-
NORTH CENTRAL ILLINOIS

CITY           SKY/WX    TMP DP  RH WIND       PRES   REMARKS
ROCKFORD       CLOUDY    40  36  86 S3        30.02S
FREEPORT*      CLOUDY    40  36  87 CALM      30.01S
ROCHELLE*      CLOUDY    40  38  92 S6        30.01S
DE KALB*       CLOUDY    38  36  92 S6        30.01F WCI  34
PERU*          CLOUDY    46  42  86 S10       30.01F
$$

ILZ005-006-012>014-019>023-270300-
NORTHEAST ILLINOIS

CITY           SKY/WX    TMP DP  RH WIND       PRES   REMARKS
CHICAGO-OHARE  CLOUDY    45  40  82 S6        30.02R
CHICAGO-MIDWAY MOCLDY    50  42  74 SW12      30.03R
AURORA         CLOUDY    44  39  82 S9        30.02S
LANSING*       CLOUDY    47  43  84 S9        30.05R
JOLIET*        CLOUDY    46  42  85 S3        30.03S
WAUKEGAN       CLOUDY    41  36  82 CALM      30.01F
DUPAGE AIRPORT CLOUDY    46  41  82 S10       30.02R
KANKAKEE*      CLOUDY    47  43  87 S9        30.05S
WHEELING       CLOUDY    44  38  79 CALM      30.04S
MORRIS*        CLOUDY    46  43  90 SW6       30.02S
ROMEOVILLE*    CLOUDY    45  42  91 SW7       30.03S
NORTHERLY ISL    N/A     49  41  74 S8          N/A
$$

LMZ740>746-270300-
SOUTHERN LAKE MICHIGAN

STATION/POSITION SKY/WX   TEMP    WIND        PRES    VSBY  WAVE
                          AIR SEA DIR/SP/G                  HT/PER
                          (F)     (DEG/KT/KT) (MB)    (MI)  (FT/S)
WAUKEGAN HARBOR            41     170/  6/  7   N/A
HARRISON CRIB              48     190/ 14/ 16   N/A
BURNHAM HARBOR             49     200/  9/ 13   N/A
CALUMET HARBOR             49     200/  7/ 15 1015.8R
MICHIGAN CITY              48     170/ 11/ 14   N/A
$$

ILZ025>027-034>036-040-047-049-050-058-095>099-270300-
WEST-CENTRAL ILLINOIS

CITY           SKY/WX    TMP DP  RH WIND       PRES   REMARKS
QUINCY         MOCLDY    47  41  80 SE5       29.96S
GALESBURG*     CLOUDY    46  41  82 CALM      29.98S
MACOMB*        CLOUDY    46  42  87 SE3       30.00S
JACKSONVILLE*  PTCLDY    52  45  77 S10       29.99S
PITTSFIELD*    CLOUDY    50  43  77 SE6       29.99S
$$

ILZ028>032-037-038-041>044-048-051>054-059>061-270300-
CENTRAL ILLINOIS

CITY           SKY/WX    TMP DP  RH WIND       PRES   REMARKS
PONTIAC        CLEAR     43  41  94 S7        30.04S
BLOOMINGTON    CLOUDY    45  43  93 S12       30.03S
DECATUR        PTCLDY    47  42  83 S10       30.05S
PEORIA         CLOUDY    50  42  74 S9        30.00S
LACON*         CLOUDY    46  41  82 S7        30.00S
LINCOLN*       CLOUDY    49  44  81 S9        30.02S
SPRINGFIELD    CLOUDY    49  43  80 S15       30.03R
TAYLORVILLE    MOCLDY    46  43  87 S16       30.05R
$$

ILZ033-039-045-046-055>057-062-063-270300-
EAST-CENTRAL ILLINOIS

CITY           SKY/WX    TMP DP  RH WIND       PRES   REMARKS
CHAMPAIGN      MOCLDY    46  42  86 S12       30.05F
DANVILLE*      CLOUDY    47  43  84 S14G20    30.05S
RANTOUL*       MOCLDY    43  41  94 S8        30.05F
MATTOON        MOCLDY    49  43  80 S13       30.07S
PARIS*         MOCLDY    45  42  92 S5        30.09S
$$

ILZ079-100>102-270300-
SOUTHWEST ILLINOIS

CITY           SKY/WX    TMP DP  RH WIND       PRES   REMARKS
BELLEVILLE     CLOUDY    50  45  83 S12       30.06S
CAHOKIA*       CLOUDY    52  43  71 S8        30.05S
SPARTA*        CLOUDY    49  42  75 S9        30.09S
$$

ILZ064>066-069>071-074>076-080>082-084>086-088>090-092>094-270300-
SOUTH-CENTRAL ILLINOIS

CITY           SKY/WX    TMP DP  RH WIND       PRES   REMARKS
CARBONDALE     CLOUDY    51  40  65 S13       30.12R
CAIRO*         MOCLDY    50  40  70 SE7       30.14S
EFFINGHAM*     CLOUDY    49  40  71 SE3       30.11R
MARION         MOCLDY    52  41  66 S13       30.12F
MT. VERNON     MOCLDY    48  41  76 S9        30.11S
CENTRALIA*     MOCLDY    48  41  77 S9        30.08F
SALEM*         CLOUDY    52  44  74 S9        30.09S
METROPOLIS*    MOCLDY    49  39  70 SE5       30.14R
$$

ILZ067-068-072-073-078-083-087-091-270300-
SOUTHEAST ILLINOIS

CITY           SKY/WX    TMP DP  RH WIND       PRES   REMARKS
LAWRENCEVILLE  CLEAR     44  40  85 S9        30.12R
FLORA*         CLEAR     47  42  82 S7        30.11R
FAIRFIELD*     CLOUDY    48  43  82 S7        30.11S
HARRISBURG*    MOCLDY    50  41  71 S8        30.16R
ROBINSON*      MOCLDY    46  41  85 S6        30.12R
CARMI*         MOCLDY    49  43  80 S10       30.13S
$$

ABBREVIATIONS USED IN REMARKS
   TC - TEMPERATURE IN CELSIUS
  WCI - WIND CHILL INDEX
   HX - HEAT INDEX
  VSB - VISIBILITY
$$




USA.gov is the U.S. government's official web portal to all federal, state and local government web resources and services.